Location: Newark
(45.8667°N, 9.7333°E)
Time: 14:56:19
(UTC+00:00)

A-11 Canister half - Pass Details

Date: 20 January 2020
Orbit: 1517 x 1683 km, 47.2° (Epoch: 22 February)

Event Time Altitude Azimuth Distance (km) Brightness Sun altitude
Rises 22:10:58 0° 191° (S) 4,734 - -59.3°
Reaches altitude 10° 22:14:53 10° 177° (S) 3,728 - -59.7°
Maximum altitude 22:21:40 23° 130° (SE) 2,817 - -60.4°
Drops below altitude 10° 22:28:22 10° 83° (E) 3,684 - -61.1°
Sets 22:32:10 0° 70° (ENE) 4,665 - -61.4°
